Year,Month,Day,Hour,Minute,Value (Times are PST for temperature in C)
2015,09,26,00,00,8.80
2015,09,26,00,01,8.80
2015,09,26,00,02,8.80
2015,09,26,00,03,8.80
2015,09,26,00,04,8.80
2015,09,26,00,05,8.80
2015,09,26,00,06,8.80
2015,09,26,00,07,8.80
2015,09,26,00,08,8.80
2015,09,26,00,09,8.80
2015,09,26,00,10,8.70
2015,09,26,00,11,8.70
2015,09,26,00,12,8.70
2015,09,26,00,13,8.70
2015,09,26,00,14,8.70
2015,09,26,00,15,8.70
2015,09,26,00,16,8.70
2015,09,26,00,17,8.60
2015,09,26,00,18,8.60
2015,09,26,00,19,8.60
2015,09,26,00,20,8.60
2015,09,26,00,21,8.60
2015,09,26,00,22,8.60
2015,09,26,00,23,8.60
2015,09,26,00,24,8.60
2015,09,26,00,25,8.70
2015,09,26,00,26,8.60
2015,09,26,00,27,8.70
2015,09,26,00,28,8.70
2015,09,26,00,29,8.70
2015,09,26,00,30,8.70
2015,09,26,00,31,8.60
2015,09,26,00,32,8.60
2015,09,26,00,33,8.60
2015,09,26,00,34,8.60
2015,09,26,00,35,8.60
2015,09,26,00,36,8.60
2015,09,26,00,37,8.60
2015,09,26,00,38,8.60
2015,09,26,00,39,8.60
2015,09,26,00,40,8.60
2015,09,26,00,41,8.60
2015,09,26,00,42,8.60
2015,09,26,00,43,8.60
2015,09,26,00,44,8.60
2015,09,26,00,45,8.60
2015,09,26,00,46,8.60
2015,09,26,00,47,8.60
2015,09,26,00,48,8.60
2015,09,26,00,49,8.60
2015,09,26,00,50,8.60
2015,09,26,00,51,8.60
2015,09,26,00,52,8.50
2015,09,26,00,53,8.50
2015,09,26,00,54,8.50
2015,09,26,00,55,8.40
2015,09,26,00,56,8.40
2015,09,26,00,57,8.40
2015,09,26,00,58,8.40
2015,09,26,00,59,8.40
2015,09,26,01,00,8.40
2015,09,26,01,01,8.40
2015,09,26,01,02,8.40
2015,09,26,01,03,8.40
2015,09,26,01,04,8.40
2015,09,26,01,05,8.40
2015,09,26,01,06,8.30
2015,09,26,01,07,8.30
2015,09,26,01,08,8.30
2015,09,26,01,09,8.30
2015,09,26,01,10,8.30
2015,09,26,01,11,8.30
2015,09,26,01,12,8.30
2015,09,26,01,13,8.20
2015,09,26,01,14,8.20
2015,09,26,01,15,8.20
2015,09,26,01,16,8.20
2015,09,26,01,17,8.20
2015,09,26,01,18,8.20
2015,09,26,01,19,8.20
2015,09,26,01,20,8.20
2015,09,26,01,21,8.20
2015,09,26,01,22,8.10
2015,09,26,01,23,8.10
2015,09,26,01,24,8.10
2015,09,26,01,25,8.10
2015,09,26,01,26,8.10
2015,09,26,01,27,8.10
2015,09,26,01,28,8.10
2015,09,26,01,29,8.10
2015,09,26,01,30,8.00
2015,09,26,01,31,8.00
2015,09,26,01,32,8.00
2015,09,26,01,33,8.00
2015,09,26,01,34,8.00
2015,09,26,01,35,8.00
2015,09,26,01,36,8.00
2015,09,26,01,37,7.90
2015,09,26,01,38,7.90
2015,09,26,01,39,7.90
2015,09,26,01,40,7.90
2015,09,26,01,41,7.90
2015,09,26,01,42,7.90
2015,09,26,01,43,7.90
2015,09,26,01,44,7.80
2015,09,26,01,45,7.80
2015,09,26,01,46,7.80
2015,09,26,01,47,7.80
2015,09,26,01,48,7.80
2015,09,26,01,49,7.80
2015,09,26,01,50,7.80
2015,09,26,01,51,7.80
2015,09,26,01,52,7.80
2015,09,26,01,53,7.80
2015,09,26,01,54,7.80
2015,09,26,01,55,7.80
2015,09,26,01,56,7.80
2015,09,26,01,57,7.80
2015,09,26,01,58,7.80
2015,09,26,01,59,7.80
2015,09,26,02,00,7.80
2015,09,26,02,01,7.80
2015,09,26,02,02,7.80
2015,09,26,02,03,7.80
2015,09,26,02,04,7.70
2015,09,26,02,05,7.70
2015,09,26,02,06,7.70
2015,09,26,02,07,7.70
2015,09,26,02,08,7.70
2015,09,26,02,09,7.70
2015,09,26,02,10,7.70
2015,09,26,02,11,7.70
2015,09,26,02,12,7.70
2015,09,26,02,13,7.70
2015,09,26,02,14,7.70
2015,09,26,02,15,7.70
2015,09,26,02,16,7.70
2015,09,26,02,17,7.70
2015,09,26,02,18,7.70
2015,09,26,02,19,7.60
2015,09,26,02,20,7.60
2015,09,26,02,21,7.60
2015,09,26,02,22,7.60
2015,09,26,02,23,7.60
2015,09,26,02,24,7.60
2015,09,26,02,25,7.60
2015,09,26,02,26,7.60
2015,09,26,02,27,7.60
2015,09,26,02,28,7.60
2015,09,26,02,29,7.60
2015,09,26,02,30,7.60
2015,09,26,02,31,7.60
2015,09,26,02,32,7.60
2015,09,26,02,33,7.60
2015,09,26,02,34,7.60
2015,09,26,02,35,7.50
2015,09,26,02,36,7.50
2015,09,26,02,37,7.50
2015,09,26,02,38,7.50
2015,09,26,02,39,7.50
2015,09,26,02,40,7.50
2015,09,26,02,41,7.50
2015,09,26,02,42,7.50
2015,09,26,02,43,7.50
2015,09,26,02,44,7.50
2015,09,26,02,45,7.50
2015,09,26,02,46,7.40
2015,09,26,02,47,7.40
2015,09,26,02,48,7.40
2015,09,26,02,49,7.40
2015,09,26,02,50,7.40
2015,09,26,02,51,7.40
2015,09,26,02,52,7.40
2015,09,26,02,53,7.40
2015,09,26,02,54,7.40
2015,09,26,02,55,7.30
2015,09,26,02,56,7.30
2015,09,26,02,57,7.30
2015,09,26,02,58,7.30
2015,09,26,02,59,7.30
2015,09,26,03,00,7.30
2015,09,26,03,01,7.30
2015,09,26,03,02,7.30
2015,09,26,03,03,7.40
2015,09,26,03,04,7.40
2015,09,26,03,05,7.40
2015,09,26,03,06,7.40
2015,09,26,03,07,7.40
2015,09,26,03,08,7.40
2015,09,26,03,09,7.40
2015,09,26,03,10,7.30
2015,09,26,03,11,7.30
2015,09,26,03,12,7.30
2015,09,26,03,13,7.30
2015,09,26,03,14,7.30
2015,09,26,03,15,7.30
2015,09,26,03,16,7.30
2015,09,26,03,17,7.30
2015,09,26,03,18,7.30
2015,09,26,03,19,7.20
2015,09,26,03,20,7.20
2015,09,26,03,21,7.20
2015,09,26,03,22,7.20
2015,09,26,03,23,7.20
2015,09,26,03,24,7.20
2015,09,26,03,25,7.20
2015,09,26,03,26,7.20
2015,09,26,03,27,7.20
2015,09,26,03,28,7.20
2015,09,26,03,29,7.20
2015,09,26,03,30,7.10
2015,09,26,03,31,7.10
2015,09,26,03,32,7.10
2015,09,26,03,33,7.10
2015,09,26,03,34,7.00
2015,09,26,03,35,7.00
2015,09,26,03,36,7.00
2015,09,26,03,37,7.00
2015,09,26,03,38,7.10
2015,09,26,03,39,7.10
2015,09,26,03,40,7.10
2015,09,26,03,41,7.10
2015,09,26,03,42,7.10
2015,09,26,03,43,7.10
2015,09,26,03,44,7.10
2015,09,26,03,45,7.10
2015,09,26,03,46,7.10
2015,09,26,03,47,7.10
2015,09,26,03,48,7.10
2015,09,26,03,49,7.00
2015,09,26,03,50,7.00
2015,09,26,03,51,7.00
2015,09,26,03,52,7.00
2015,09,26,03,53,7.00
2015,09,26,03,54,7.00
2015,09,26,03,55,7.00
2015,09,26,03,56,7.00
2015,09,26,03,57,7.00
2015,09,26,03,58,7.10
2015,09,26,03,59,7.10
2015,09,26,04,00,7.10
2015,09,26,04,01,7.10
2015,09,26,04,02,7.10
2015,09,26,04,03,7.10
2015,09,26,04,04,7.10
2015,09,26,04,05,7.00
2015,09,26,04,06,7.00
2015,09,26,04,07,7.00
2015,09,26,04,08,7.00
2015,09,26,04,09,7.00
2015,09,26,04,10,7.00
2015,09,26,04,11,7.00
2015,09,26,04,12,6.90
2015,09,26,04,13,6.90
2015,09,26,04,14,6.90
2015,09,26,04,15,6.90
2015,09,26,04,16,6.90
2015,09,26,04,17,6.90
2015,09,26,04,18,6.90
2015,09,26,04,19,6.90
2015,09,26,04,20,6.80
2015,09,26,04,21,6.80
2015,09,26,04,22,6.80
2015,09,26,04,23,6.80
2015,09,26,04,24,6.80
2015,09,26,04,25,6.80
2015,09,26,04,26,6.80
2015,09,26,04,27,6.80
2015,09,26,04,28,6.80
2015,09,26,04,29,6.80
2015,09,26,04,30,6.80
2015,09,26,04,31,6.80
2015,09,26,04,32,6.80
2015,09,26,04,33,6.80
2015,09,26,04,34,6.80
2015,09,26,04,35,6.80
2015,09,26,04,36,6.80
2015,09,26,04,37,6.80
2015,09,26,04,38,6.80
2015,09,26,04,39,6.80
2015,09,26,04,40,6.80
2015,09,26,04,41,6.80
2015,09,26,04,42,6.80
2015,09,26,04,43,6.80
2015,09,26,04,44,6.80
2015,09,26,04,45,6.70
2015,09,26,04,46,6.70
2015,09,26,04,47,6.70
2015,09,26,04,48,6.70
2015,09,26,04,49,6.70
2015,09,26,04,50,6.70
2015,09,26,04,51,6.70
2015,09,26,04,52,6.70
2015,09,26,04,53,6.70
2015,09,26,04,54,6.70
2015,09,26,04,55,6.70
2015,09,26,04,56,6.70
2015,09,26,04,57,6.70
2015,09,26,04,58,6.70
2015,09,26,04,59,6.70
2015,09,26,05,00,6.70
2015,09,26,05,01,6.70
2015,09,26,05,02,6.70
2015,09,26,05,03,6.70
2015,09,26,05,04,6.70
2015,09,26,05,05,6.70
2015,09,26,05,06,6.70
2015,09,26,05,07,6.60
2015,09,26,05,08,6.60
2015,09,26,05,09,6.60
2015,09,26,05,10,6.60
2015,09,26,05,11,6.60
2015,09,26,05,12,6.60
2015,09,26,05,13,6.60
2015,09,26,05,14,6.60
2015,09,26,05,15,6.60
2015,09,26,05,16,6.60
2015,09,26,05,17,6.60
2015,09,26,05,18,6.60
2015,09,26,05,19,6.60
2015,09,26,05,20,6.60
2015,09,26,05,21,6.60
2015,09,26,05,22,6.60
2015,09,26,05,23,6.60
2015,09,26,05,24,6.60
2015,09,26,05,25,6.60
2015,09,26,05,26,6.60
2015,09,26,05,27,6.60
2015,09,26,05,28,6.60
2015,09,26,05,29,6.60
2015,09,26,05,30,6.60
2015,09,26,05,31,6.60
2015,09,26,05,32,6.70
2015,09,26,05,33,6.70
2015,09,26,05,34,6.70
2015,09,26,05,35,6.70
2015,09,26,05,36,6.70
2015,09,26,05,37,6.70
2015,09,26,05,38,6.70
2015,09,26,05,39,6.70
2015,09,26,05,40,6.70
2015,09,26,05,41,6.70
2015,09,26,05,42,6.70
2015,09,26,05,43,6.70
2015,09,26,05,44,6.70
2015,09,26,05,45,6.70
2015,09,26,05,46,6.70
2015,09,26,05,47,6.70
2015,09,26,05,48,6.70
2015,09,26,05,49,6.70
2015,09,26,05,50,6.70
2015,09,26,05,51,6.70
2015,09,26,05,52,6.70
2015,09,26,05,53,6.70
2015,09,26,05,54,6.70
2015,09,26,05,55,6.70
2015,09,26,05,56,6.70
2015,09,26,05,57,6.70
2015,09,26,05,58,6.70
2015,09,26,05,59,6.70
2015,09,26,06,00,6.70
2015,09,26,06,01,6.70
2015,09,26,06,02,6.80
2015,09,26,06,03,6.80
2015,09,26,06,04,6.80
2015,09,26,06,05,6.80
2015,09,26,06,06,6.80
2015,09,26,06,07,6.80
2015,09,26,06,08,6.80
2015,09,26,06,09,6.80
2015,09,26,06,10,6.80
2015,09,26,06,11,6.80
2015,09,26,06,12,6.80
2015,09,26,06,13,6.80
2015,09,26,06,14,6.80
2015,09,26,06,15,6.80
2015,09,26,06,16,6.90
2015,09,26,06,17,6.90
2015,09,26,06,18,6.90
2015,09,26,06,19,6.90
2015,09,26,06,20,6.90
2015,09,26,06,21,7.00
2015,09,26,06,22,7.00
2015,09,26,06,23,7.00
2015,09,26,06,24,7.00
2015,09,26,06,25,7.00
2015,09,26,06,26,7.00
2015,09,26,06,27,7.00
2015,09,26,06,28,7.10
2015,09,26,06,29,7.10
2015,09,26,06,30,7.10
2015,09,26,06,31,7.10
2015,09,26,06,32,7.10
2015,09,26,06,33,7.10
2015,09,26,06,34,7.10
2015,09,26,06,35,7.10
2015,09,26,06,36,7.20
2015,09,26,06,37,7.20
2015,09,26,06,38,7.20
2015,09,26,06,39,7.20
2015,09,26,06,40,7.20
2015,09,26,06,41,7.20
2015,09,26,06,42,7.20
2015,09,26,06,43,7.20
2015,09,26,06,44,7.20
2015,09,26,06,45,7.20
2015,09,26,06,46,7.20
2015,09,26,06,47,7.20
2015,09,26,06,48,7.20
2015,09,26,06,49,7.30
2015,09,26,06,50,7.30
2015,09,26,06,51,7.30
2015,09,26,06,52,7.30
2015,09,26,06,53,7.30
2015,09,26,06,54,7.40
2015,09,26,06,55,7.40
2015,09,26,06,56,7.40
2015,09,26,06,57,7.40
2015,09,26,06,58,7.40
2015,09,26,06,59,7.40
2015,09,26,07,00,7.40
2015,09,26,07,01,7.40
2015,09,26,07,02,7.40
2015,09,26,07,03,7.40
2015,09,26,07,04,7.40
2015,09,26,07,05,7.40
2015,09,26,07,06,7.40
2015,09,26,07,07,7.50
2015,09,26,07,08,7.50
2015,09,26,07,09,7.50
2015,09,26,07,10,7.50
2015,09,26,07,11,7.60
2015,09,26,07,12,7.60
2015,09,26,07,13,7.60
2015,09,26,07,14,7.60
2015,09,26,07,15,7.60
2015,09,26,07,16,7.60
2015,09,26,07,17,7.60
2015,09,26,07,18,7.70
2015,09,26,07,19,7.70
2015,09,26,07,20,7.70
2015,09,26,07,21,7.70
2015,09,26,07,22,7.70
2015,09,26,07,23,7.70
2015,09,26,07,24,7.70
2015,09,26,07,25,7.70
2015,09,26,07,26,7.70
2015,09,26,07,27,7.70
2015,09,26,07,28,7.70
2015,09,26,07,29,7.70
2015,09,26,07,30,7.70
2015,09,26,07,31,7.70
2015,09,26,07,32,7.70
2015,09,26,07,33,7.70
2015,09,26,07,34,7.70
2015,09,26,07,35,7.70
2015,09,26,07,36,7.70
2015,09,26,07,37,7.80
2015,09,26,07,38,7.80
2015,09,26,07,39,7.80
2015,09,26,07,40,7.80
2015,09,26,07,41,7.80
2015,09,26,07,42,7.80
2015,09,26,07,43,7.80
2015,09,26,07,44,7.80
2015,09,26,07,45,7.80
2015,09,26,07,46,7.80
2015,09,26,07,47,7.80
2015,09,26,07,48,7.80
2015,09,26,07,49,7.80
2015,09,26,07,50,7.80
2015,09,26,07,51,7.80
2015,09,26,07,52,7.80
2015,09,26,07,53,7.80
2015,09,26,07,54,7.80
2015,09,26,07,55,7.90
2015,09,26,07,56,7.90
2015,09,26,07,57,7.90
2015,09,26,07,58,7.90
2015,09,26,07,59,7.90
2015,09,26,08,00,8.00
2015,09,26,08,01,8.00
2015,09,26,08,02,8.10
2015,09,26,08,03,8.10
2015,09,26,08,04,8.10
2015,09,26,08,05,8.10
2015,09,26,08,06,8.20
2015,09,26,08,07,8.20
2015,09,26,08,08,8.20
2015,09,26,08,09,8.20
2015,09,26,08,10,8.20
2015,09,26,08,11,8.30
2015,09,26,08,12,8.30
2015,09,26,08,13,8.30
2015,09,26,08,14,8.30
2015,09,26,08,15,8.30
2015,09,26,08,16,8.30
2015,09,26,08,17,8.30
2015,09,26,08,18,8.40
2015,09,26,08,19,8.40
2015,09,26,08,20,8.40
2015,09,26,08,21,8.40
2015,09,26,08,22,8.40
2015,09,26,08,23,8.40
2015,09,26,08,24,8.50
2015,09,26,08,25,8.50
2015,09,26,08,26,8.50
2015,09,26,08,27,8.60
2015,09,26,08,28,8.60
2015,09,26,08,29,8.60
2015,09,26,08,30,8.60
2015,09,26,08,31,8.60
2015,09,26,08,32,8.60
2015,09,26,08,33,8.70
2015,09,26,08,34,8.70
2015,09,26,08,35,8.70
2015,09,26,08,36,8.70
2015,09,26,08,37,8.80
2015,09,26,08,38,8.80
2015,09,26,08,39,8.80
2015,09,26,08,40,8.90
2015,09,26,08,41,8.90
2015,09,26,08,42,8.90
2015,09,26,08,43,8.90
2015,09,26,08,44,8.90
2015,09,26,08,45,8.90
2015,09,26,08,46,8.90
2015,09,26,08,47,9.00
2015,09,26,08,48,9.00
2015,09,26,08,49,9.10
2015,09,26,08,50,9.20
2015,09,26,08,51,9.30
2015,09,26,08,52,9.40
2015,09,26,08,53,9.40
2015,09,26,08,54,9.60
2015,09,26,08,55,9.60
2015,09,26,08,56,9.70
2015,09,26,08,57,9.90
2015,09,26,08,58,10.00
2015,09,26,08,59,10.20
2015,09,26,09,00,10.30
2015,09,26,09,01,10.40
2015,09,26,09,02,10.40
2015,09,26,09,03,10.40
2015,09,26,09,04,10.40
2015,09,26,09,05,10.40
2015,09,26,09,06,10.40
2015,09,26,09,07,10.40
2015,09,26,09,08,10.40
2015,09,26,09,09,10.50
2015,09,26,09,10,10.50
2015,09,26,09,11,10.50
2015,09,26,09,12,10.60
2015,09,26,09,13,10.60
2015,09,26,09,14,10.60
2015,09,26,09,15,10.70
2015,09,26,09,16,10.80
2015,09,26,09,17,10.80
2015,09,26,09,18,10.90
2015,09,26,09,19,10.90
2015,09,26,09,20,10.90
2015,09,26,09,21,11.00
2015,09,26,09,22,11.00
2015,09,26,09,23,11.00
2015,09,26,09,24,11.00
2015,09,26,09,25,11.00
2015,09,26,09,26,11.00
2015,09,26,09,27,11.00
2015,09,26,09,28,11.00
2015,09,26,09,29,11.00
2015,09,26,09,30,11.10
2015,09,26,09,31,11.10
2015,09,26,09,32,11.00
2015,09,26,09,33,11.00
2015,09,26,09,34,11.00
2015,09,26,09,35,11.00
2015,09,26,09,36,10.90
2015,09,26,09,37,10.90
2015,09,26,09,38,10.80
2015,09,26,09,39,10.80
2015,09,26,09,40,10.80
2015,09,26,09,41,10.80
2015,09,26,09,42,10.80
2015,09,26,09,43,10.80
2015,09,26,09,44,10.80
2015,09,26,09,45,10.80
2015,09,26,09,46,10.90
2015,09,26,09,47,10.90
2015,09,26,09,48,10.80
2015,09,26,09,49,10.80
2015,09,26,09,50,10.90
2015,09,26,09,51,10.90
2015,09,26,09,52,10.90
2015,09,26,09,53,11.00
2015,09,26,09,54,11.00
2015,09,26,09,55,11.00
2015,09,26,09,56,11.10
2015,09,26,09,57,11.10
2015,09,26,09,58,11.10
2015,09,26,09,59,11.20
2015,09,26,10,00,11.20
2015,09,26,10,01,11.30
2015,09,26,10,02,11.30
2015,09,26,10,03,11.30
2015,09,26,10,04,11.30
2015,09,26,10,05,11.30
2015,09,26,10,06,11.40
2015,09,26,10,07,11.40
2015,09,26,10,08,11.40
2015,09,26,10,09,11.50
2015,09,26,10,10,11.50
2015,09,26,10,11,11.60
2015,09,26,10,12,11.60
2015,09,26,10,13,11.60
2015,09,26,10,14,11.60
2015,09,26,10,15,11.70
2015,09,26,10,16,11.70
2015,09,26,10,17,11.70
2015,09,26,10,18,11.80
2015,09,26,10,19,11.80
2015,09,26,10,20,11.80
2015,09,26,10,21,11.80
2015,09,26,10,22,11.90
2015,09,26,10,23,11.90
2015,09,26,10,24,11.90
2015,09,26,10,25,11.90
2015,09,26,10,26,12.00
2015,09,26,10,27,12.10
2015,09,26,10,28,12.20
2015,09,26,10,29,12.20
2015,09,26,10,30,12.30
2015,09,26,10,31,12.40
2015,09,26,10,32,12.40
2015,09,26,10,33,12.50
2015,09,26,10,34,12.70
2015,09,26,10,35,12.80
2015,09,26,10,36,12.90
2015,09,26,10,37,13.10
2015,09,26,10,38,13.20
2015,09,26,10,39,13.20
2015,09,26,10,40,13.20
2015,09,26,10,41,13.30
2015,09,26,10,42,13.30
2015,09,26,10,43,13.40
2015,09,26,10,44,13.50
2015,09,26,10,45,13.50
2015,09,26,10,46,13.60
2015,09,26,10,47,13.60
2015,09,26,10,48,13.60
2015,09,26,10,49,13.70
2015,09,26,10,50,13.70
2015,09,26,10,51,13.80
2015,09,26,10,52,13.90
2015,09,26,10,53,14.00
2015,09,26,10,54,14.00
2015,09,26,10,55,14.10
2015,09,26,10,56,14.10
2015,09,26,10,57,14.10
2015,09,26,10,58,14.20
2015,09,26,10,59,14.30
2015,09,26,11,00,14.30
2015,09,26,11,01,14.30
2015,09,26,11,02,14.30
2015,09,26,11,03,14.40
2015,09,26,11,04,14.40
2015,09,26,11,05,14.40
2015,09,26,11,06,14.40
2015,09,26,11,07,14.40
2015,09,26,11,08,14.30
2015,09,26,11,09,14.20
2015,09,26,11,10,14.10
2015,09,26,11,11,14.10
2015,09,26,11,12,14.10
2015,09,26,11,13,14.10
2015,09,26,11,14,14.10
2015,09,26,11,15,14.10
2015,09,26,11,16,14.10
2015,09,26,11,17,14.10
2015,09,26,11,18,14.00
2015,09,26,11,19,14.00
2015,09,26,11,20,14.00
2015,09,26,11,21,13.90
2015,09,26,11,22,13.90
2015,09,26,11,23,13.90
2015,09,26,11,24,13.90
2015,09,26,11,25,13.90
2015,09,26,11,26,13.90
2015,09,26,11,27,13.80
2015,09,26,11,28,13.80
2015,09,26,11,29,13.80
2015,09,26,11,30,13.80
2015,09,26,11,31,13.80
2015,09,26,11,32,13.80
2015,09,26,11,33,13.80
2015,09,26,11,34,13.80
2015,09,26,11,35,13.80
2015,09,26,11,36,13.80
2015,09,26,11,37,13.80
2015,09,26,11,38,13.80
2015,09,26,11,39,13.80
2015,09,26,11,40,13.80
2015,09,26,11,41,13.80
2015,09,26,11,42,13.80
2015,09,26,11,43,13.80
2015,09,26,11,44,13.80
2015,09,26,11,45,13.80
2015,09,26,11,46,13.80
2015,09,26,11,47,13.80
2015,09,26,11,48,13.70
2015,09,26,11,49,13.70
2015,09,26,11,50,13.70
2015,09,26,11,51,13.70
2015,09,26,11,52,13.60
2015,09,26,11,53,13.60
2015,09,26,11,54,13.60
2015,09,26,11,55,13.60
2015,09,26,11,56,13.60
2015,09,26,11,57,13.60
2015,09,26,11,58,13.60
2015,09,26,11,59,13.60
2015,09,26,12,00,13.70
2015,09,26,12,01,13.80
2015,09,26,12,02,13.80
2015,09,26,12,03,13.90
2015,09,26,12,04,13.90
2015,09,26,12,05,14.00
2015,09,26,12,06,14.00
2015,09,26,12,07,14.10
2015,09,26,12,08,14.10
2015,09,26,12,09,14.20
2015,09,26,12,10,14.30
2015,09,26,12,11,14.30
2015,09,26,12,12,14.40
2015,09,26,12,13,14.40
2015,09,26,12,14,14.40
2015,09,26,12,15,14.50
2015,09,26,12,16,14.50
2015,09,26,12,17,14.60
2015,09,26,12,18,14.60
2015,09,26,12,19,14.60
2015,09,26,12,20,14.60
2015,09,26,12,21,14.50
2015,09,26,12,22,14.50
2015,09,26,12,23,14.40
2015,09,26,12,24,14.40
2015,09,26,12,25,14.40
2015,09,26,12,26,14.30
2015,09,26,12,27,14.30
2015,09,26,12,28,14.30
2015,09,26,12,29,14.20
2015,09,26,12,30,14.30
2015,09,26,12,31,14.30
2015,09,26,12,32,14.30
2015,09,26,12,33,14.30
2015,09,26,12,34,14.40
2015,09,26,12,35,14.50
2015,09,26,12,36,14.50
2015,09,26,12,37,14.60
2015,09,26,12,38,14.70
2015,09,26,12,39,14.70
2015,09,26,12,40,14.80
2015,09,26,12,41,14.90
2015,09,26,12,42,15.00
2015,09,26,12,43,15.00
2015,09,26,12,44,15.00
2015,09,26,12,45,15.00
2015,09,26,12,46,15.00
2015,09,26,12,47,15.00
2015,09,26,12,48,15.00
2015,09,26,12,49,15.00
2015,09,26,12,50,15.00
2015,09,26,12,51,15.00
2015,09,26,12,52,15.00
2015,09,26,12,53,15.00
2015,09,26,12,54,15.00
2015,09,26,12,55,15.00
2015,09,26,12,56,15.00
2015,09,26,12,57,15.00
2015,09,26,12,58,15.00
2015,09,26,12,59,15.00
2015,09,26,13,00,15.00
2015,09,26,13,01,15.00
2015,09,26,13,02,15.00
2015,09,26,13,03,15.00
2015,09,26,13,04,15.00
2015,09,26,13,05,15.00
2015,09,26,13,06,14.90
2015,09,26,13,07,14.80
2015,09,26,13,08,14.80
2015,09,26,13,09,14.80
2015,09,26,13,10,14.70
2015,09,26,13,11,14.70
2015,09,26,13,12,14.70
2015,09,26,13,13,14.60
2015,09,26,13,14,14.60
2015,09,26,13,15,14.60
2015,09,26,13,16,14.60
2015,09,26,13,17,14.60
2015,09,26,13,18,14.70
2015,09,26,13,19,14.80
2015,09,26,13,20,14.80
2015,09,26,13,21,15.00
2015,09,26,13,22,15.00
2015,09,26,13,23,15.00
2015,09,26,13,24,15.00
2015,09,26,13,25,15.00
2015,09,26,13,26,15.00
2015,09,26,13,27,15.00
2015,09,26,13,28,15.00
2015,09,26,13,29,15.10
2015,09,26,13,30,15.20
2015,09,26,13,31,15.30
2015,09,26,13,32,15.30
2015,09,26,13,33,15.30
2015,09,26,13,34,15.40
2015,09,26,13,35,15.30
2015,09,26,13,36,15.30
2015,09,26,13,37,15.30
2015,09,26,13,38,15.30
2015,09,26,13,39,15.30
2015,09,26,13,40,15.30
2015,09,26,13,41,15.40
2015,09,26,13,42,15.40
2015,09,26,13,43,15.30
2015,09,26,13,44,15.00
2015,09,26,13,45,15.00
2015,09,26,13,46,15.00
2015,09,26,13,47,15.00
2015,09,26,13,48,15.00
2015,09,26,13,49,15.00
2015,09,26,13,50,15.00
2015,09,26,13,51,15.00
2015,09,26,13,52,15.00
2015,09,26,13,53,15.00
2015,09,26,13,54,15.00
2015,09,26,13,55,15.00
2015,09,26,13,56,15.10
2015,09,26,13,57,15.20
2015,09,26,13,58,15.30
2015,09,26,13,59,15.30
2015,09,26,14,00,15.40
2015,09,26,14,01,15.40
2015,09,26,14,02,15.40
2015,09,26,14,03,15.30
2015,09,26,14,04,15.30
2015,09,26,14,05,15.10
2015,09,26,14,06,15.00
2015,09,26,14,07,15.00
2015,09,26,14,08,15.00
2015,09,26,14,09,15.00
2015,09,26,14,10,15.00
2015,09,26,14,11,15.00
2015,09,26,14,12,15.00
2015,09,26,14,13,15.10
2015,09,26,14,14,15.30
2015,09,26,14,15,15.30
2015,09,26,14,16,15.30
2015,09,26,14,17,15.30
2015,09,26,14,18,15.20
2015,09,26,14,19,15.30
2015,09,26,14,20,15.20
2015,09,26,14,21,15.10
2015,09,26,14,22,15.00
2015,09,26,14,23,15.00
2015,09,26,14,24,15.20
2015,09,26,14,25,15.20
2015,09,26,14,26,15.20
2015,09,26,14,27,15.30
2015,09,26,14,28,15.30
2015,09,26,14,29,15.20
2015,09,26,14,30,15.20
2015,09,26,14,31,15.20
2015,09,26,14,32,15.10
2015,09,26,14,33,15.10
2015,09,26,14,34,15.20
2015,09,26,14,35,15.20
2015,09,26,14,36,15.20
2015,09,26,14,37,15.20
2015,09,26,14,38,15.30
2015,09,26,14,39,15.30
2015,09,26,14,40,15.40
2015,09,26,14,41,15.50
2015,09,26,14,42,15.50
2015,09,26,14,43,15.50
2015,09,26,14,44,15.50
2015,09,26,14,45,15.40
2015,09,26,14,46,15.40
2015,09,26,14,47,15.40
2015,09,26,14,48,15.40
2015,09,26,14,49,15.40
2015,09,26,14,50,15.40
2015,09,26,14,51,15.40
2015,09,26,14,52,15.30
2015,09,26,14,53,15.30
2015,09,26,14,54,15.40
2015,09,26,14,55,15.40
2015,09,26,14,56,15.40
2015,09,26,14,57,15.50
2015,09,26,14,58,15.50
2015,09,26,14,59,15.50
2015,09,26,15,00,15.40
2015,09,26,15,01,15.30
2015,09,26,15,02,15.20
2015,09,26,15,03,15.20
2015,09,26,15,04,15.20
2015,09,26,15,05,15.20
2015,09,26,15,06,15.20
2015,09,26,15,07,15.30
2015,09,26,15,08,15.30
2015,09,26,15,09,15.40
2015,09,26,15,10,15.50
2015,09,26,15,11,15.50
2015,09,26,15,12,15.60
2015,09,26,15,13,15.70
2015,09,26,15,14,15.80
2015,09,26,15,15,15.80
2015,09,26,15,16,15.80
2015,09,26,15,17,15.80
2015,09,26,15,18,15.80
2015,09,26,15,19,15.80
2015,09,26,15,20,15.80
2015,09,26,15,21,15.90
2015,09,26,15,22,15.90
2015,09,26,15,23,15.90
2015,09,26,15,24,16.00
2015,09,26,15,25,16.10
2015,09,26,15,26,16.10
2015,09,26,15,27,16.20
2015,09,26,15,28,16.20
2015,09,26,15,29,16.30
2015,09,26,15,30,16.30
2015,09,26,15,31,16.20
2015,09,26,15,32,16.20
2015,09,26,15,33,16.10
2015,09,26,15,34,16.10
2015,09,26,15,35,16.00
2015,09,26,15,36,16.00
2015,09,26,15,37,15.90
2015,09,26,15,38,15.80
2015,09,26,15,39,15.70
2015,09,26,15,40,15.70
2015,09,26,15,41,15.70
2015,09,26,15,42,15.70
2015,09,26,15,43,15.70
2015,09,26,15,44,15.70
2015,09,26,15,45,15.70
2015,09,26,15,46,15.70
2015,09,26,15,47,15.70
2015,09,26,15,48,15.70
2015,09,26,15,49,15.70
2015,09,26,15,50,15.60
2015,09,26,15,51,15.60
2015,09,26,15,52,15.50
2015,09,26,15,53,15.50
2015,09,26,15,54,15.40
2015,09,26,15,55,15.30
2015,09,26,15,56,15.30
2015,09,26,15,57,15.20
2015,09,26,15,58,15.20
2015,09,26,15,59,15.20
2015,09,26,16,00,15.10
2015,09,26,16,01,15.10
2015,09,26,16,02,15.00
2015,09,26,16,03,15.00
2015,09,26,16,04,15.00
2015,09,26,16,05,15.00
2015,09,26,16,06,15.00
2015,09,26,16,07,15.00
2015,09,26,16,08,15.00
2015,09,26,16,09,15.10
2015,09,26,16,10,15.10
2015,09,26,16,11,15.10
2015,09,26,16,12,15.10
2015,09,26,16,13,15.20
2015,09,26,16,14,15.20
2015,09,26,16,15,15.20
2015,09,26,16,16,15.20
2015,09,26,16,17,15.00
2015,09,26,16,18,15.00
2015,09,26,16,19,15.00
2015,09,26,16,20,15.00
2015,09,26,16,21,15.00
2015,09,26,16,22,14.90
2015,09,26,16,23,14.80
2015,09,26,16,24,14.70
2015,09,26,16,25,14.70
2015,09,26,16,26,14.70
2015,09,26,16,27,14.70
2015,09,26,16,28,14.70
2015,09,26,16,29,14.70
2015,09,26,16,30,14.70
2015,09,26,16,31,14.70
2015,09,26,16,32,14.60
2015,09,26,16,33,14.60
2015,09,26,16,34,14.60
2015,09,26,16,35,14.60
2015,09,26,16,36,14.50
2015,09,26,16,37,14.50
2015,09,26,16,38,14.30
2015,09,26,16,39,14.30
2015,09,26,16,40,14.30
2015,09,26,16,41,14.30
2015,09,26,16,42,14.30
2015,09,26,16,43,14.40
2015,09,26,16,44,14.50
2015,09,26,16,45,14.40
2015,09,26,16,46,14.40
2015,09,26,16,47,14.30
2015,09,26,16,48,14.20
2015,09,26,16,49,14.10
2015,09,26,16,50,14.00
2015,09,26,16,51,13.90
2015,09,26,16,52,13.90
2015,09,26,16,53,13.80
2015,09,26,16,54,13.70
2015,09,26,16,55,13.70
2015,09,26,16,56,13.60
2015,09,26,16,57,13.60
2015,09,26,16,58,13.50
2015,09,26,16,59,13.50
2015,09,26,17,00,13.50
2015,09,26,17,01,13.50
2015,09,26,17,02,13.50
2015,09,26,17,03,13.50
2015,09,26,17,04,13.60
2015,09,26,17,05,13.60
2015,09,26,17,06,13.60
2015,09,26,17,07,13.60
2015,09,26,17,08,13.60
2015,09,26,17,09,13.60
2015,09,26,17,10,13.60
2015,09,26,17,11,13.60
2015,09,26,17,12,13.60
2015,09,26,17,13,13.60
2015,09,26,17,14,13.60
2015,09,26,17,15,13.60
2015,09,26,17,16,13.60
2015,09,26,17,17,13.60
2015,09,26,17,18,13.60
2015,09,26,17,19,13.70
2015,09,26,17,20,13.70
2015,09,26,17,21,13.70
2015,09,26,17,22,13.70
2015,09,26,17,23,13.80
2015,09,26,17,24,13.80
2015,09,26,17,25,13.90
2015,09,26,17,26,14.00
2015,09,26,17,27,14.00
2015,09,26,17,28,14.10
2015,09,26,17,29,14.20
2015,09,26,17,30,14.20
2015,09,26,17,31,14.30
2015,09,26,17,32,14.20
2015,09,26,17,33,14.20
2015,09,26,17,34,14.20
2015,09,26,17,35,14.30
2015,09,26,17,36,14.30
2015,09,26,17,37,14.20
2015,09,26,17,38,14.20
2015,09,26,17,39,14.10
2015,09,26,17,40,14.10
2015,09,26,17,41,14.10
2015,09,26,17,42,14.00